Temp
-1 -2 -1 -1 -1 -1 -1 -1 -1 -1 -1 -1 -1 -1 -1 -0 0 1 2 3 4 5 6 7 8 8 8 9 10 9 9 10 10 11 11 10 10 10 10 10 11 11 10 11 11
-1 -2 -2 -1 -2 -2 -2 -1 -2 -2 -1 -2 -2 -2 -1 -1 -0 1 2 3 4 5 6 7 7 7 8 9 9 9 9 9 10 10 10 10 10 10 10 10 11 11 11 11 11
-2 -2 -3 -2 -3 -2 -2 -2 -2 -2 -2 -2 -2 -2 -1 -1 -1 1 2 3 4 4 5 6 6 7 7 8 9 9 8 9 10 10 10 10 10 10 10 10 10 11 11 10 10
-2 -2 -2 -2 -3 -3 -2 -2 -2 -2 -2 -2 -2 -2 -2 -1 -1 0 2 2 3 4 5 6 7 6 7 8 9 8 8 8 9 9 9 10 10 10 10 11 11 10 11 10 10
-2 -3 -2 -2 -3 -3 -3 -2 -2 -3 -3 -3 -2 -2 -2 -1 -1 -0 1 2 3 4 5 5 6 6 6 7 8 7 8 8 9 9 9 10 10 10 10 11 10 10 10 10 10
-3 -3 -3 -3 -3 -3 -3 -3 -3 -3 -3 -3 -3 -2 -2 -2 -1 0 1 2 3 3 4 5 5 5 6 6 7 7 7 8 9 9 9 9 10 10 10 11 10 10 10 10 10
-2 -3 -3 -4 -3 -3 -3 -3 -3 -3 -3 -3 -3 -2 -3 -2 -1 1 1 2 2 3 4 4 5 4 5 6 6 7 7 8 8 9 9 9 9 10 10 10 10 10 10 10 10
-2 -2 -3 -3 -4 -4 -3 -4 -3 -5 -5 -4 -2 -2 -3 -2 1 0 1 2 2 3 4 4 5 4 5 6 6 7 7 8 9 9 9 9 9 10 10 10 10 10 10 9 9
-1 -1 -2 -2 -3 -3 -4 -4 -4 -5 -4 -3 -2 -3 -2 -1 -1 0 1 2 3 3 4 3 4 5 5 6 6 7 8 8 8 9 9 9 9 9 9 10 10 9 9 10 10
-1 -1 -1 -2 -2 -3 -3 -3 -3 -3 -3 -3 -3 -3 -2 -1 -0 1 2 2 2 3 3 3 4 5 5 6 6 7 8 9 8 9 9 9 10 9 10 9 9 9 9 10 10
0 -0 0 -1 -1 -2 -2 -2 -2 -2 -2 -2 -3 -2 -1 -0 0 1 1 2 2 2 2 3 4 4 6 6 7 8 9 9 8 9 9 9 9 10 9 10 10 10 9 10 10
1 0 1 0 -0 -1 -1 -1 -2 -2 -2 -2 -2 -1 -1 0 0 1 1 1 2 2 2 3 4 4 5 6 7 8 9 8 8 8 8 8 9 10 10 10 10 10 10 10 9
2 1 1 1 0 0 -0 -1 -1 -1 -1 -1 -1 -1 -0 1 1 1 1 2 2 2 3 3 4 5 5 6 7 8 8 8 8 8 8 8 9 10 10 10 10 10 9 9 9
2 2 1 1 1 1 1 0 0 0 0 -0 0 0 1 1 1 1 2 2 2 2 3 4 5 5 5 6 7 7 7 7 7 7 7 7 7 9 9 10 10 10 9 9 9
3 3 2 2 2 2 1 1 1 1 0 1 1 1 1 2 2 2 2 3 3 3 4 4 5 5 5 6 6 7 7 7 7 7 7 7 7 8 9 9 9 9 9 8 8
3 3 3 3 3 3 2 2 2 2 -1 1 1 2 2 2 3 3 3 4 4 4 4 5 5 5 6 6 6 6 7 6 6 6 2 6 6 8 8 9 9 8 8 8 7
3 3 3 3 3 3 3 3 2 1 1 2 2 2 2 3 3 3 4 4 4 4 4 4 4 5 5 6 6 6 6 5 1 1 -0 5 5 8 8 8 7 7 7 7 6
3 3 3 4 4 3 4 3 3 1 1 2 2 2 3 3 3 4 4 4 4 5 5 5 4 5 5 5 6 6 5 4 2 -0 1 5 5 7 7 7 7 6 7 6 5
3 3 4 4 4 4 4 4 1 1 2 2 2 3 3 3 4 4 3 4 4 5 4 4 4 4 4 5 5 4 4 4 4 4 3 6 6 6 7 6 6 6 6 5 4
4 4 4 4 4 4 4 4 3 2 2 2 1 3 3 3 3 3 3 4 4 4 4 4 4 4 4 4 4 4 3 3 3 1 3 6 6 6 6 6 6 5 5 4 4
3 4 4 4 4 4 4 3 3 3 3 3 3 3 2 3 2 3 3 4 4 4 4 4 4 3 3 4 4 3 3 3 3 3 1 1 4 6 6 6 6 5 5 4 3
4 3 4 4 4 4 4 3 3 3 4 4 4 4 4 4 4 4 4 4 4 4 4 4 3 3 3 3 3 3 2 2 3 2 3 3 4 6 5 5 4 3 3 3 2
4 3 3 4 4 4 3 3 3 3 4 4 4 4 4 4 4 4 4 4 4 4 4 4 3 2 2 2 3 3 3 3 1 2 2 2 4 4 4 3 2 2 2 2 2
4 3 3 3 3 3 3 3 3 3 3 3 3 3 3 3 3 3 3 3 3 3 3 3 3 3 3 3 3 3 4 3 2 1 2 3 4 4 3 1 1 1 1 2 1
4 4 3 3 3 3 3 3 3 3 3 3 3 3 3 3 3 3 3 3 3 3 3 2 2 3 3 2 2 2 2 2 2 3 1 3 2 3 2 2 2 2 1 1 1
3 3 3 3 3 3 2 2 2 2 2 2 2 2 3 2 2 2 2 2 3 2 2 2 2 2 3 2 2 1 2 1 1 2 0 0 1 0 1 1 1 0 -0 -0 -0
3 2 2 3 3 3 2 2 2 2 2 2 2 2 2 2 2 2 2 2 1 1 1 0 0 -1 -0 0 -0 -0 3 3 2 1 0 -1 -0 -1 -0 1 -0 -1 -1 -1 -1
Height
3051 3048 3046 3045 3044 3044 3044 3046 3047 3049 3052 3056 3060 3064 3069 3074 3078 3082 3086 3091 3096 3107 3114 3120 3126 3132 3137 3142 3144 3148 3153 3155 3158 3159 3158 3159 3161 3163 3164 3165 3165 3167 3166 3166 3167
3048 3044 3041 3041 3041 3042 3043 3043 3045 3048 3051 3054 3057 3062 3066 3071 3075 3078 3084 3088 3096 3103 3111 3118 3124 3129 3134 3138 3142 3145 3149 3154 3155 3156 3156 3158 3160 3162 3164 3163 3164 3165 3165 3165 3165
3042 3036 3034 3036 3037 3039 3041 3043 3045 3046 3049 3051 3054 3058 3064 3069 3073 3078 3081 3087 3094 3100 3107 3114 3120 3127 3132 3135 3139 3143 3146 3150 3151 3155 3155 3157 3158 3160 3161 3162 3162 3162 3164 3163 3163
3043 3038 3037 3036 3038 3039 3041 3042 3043 3045 3047 3050 3053 3056 3060 3067 3076 3075 3081 3085 3091 3097 3105 3112 3118 3123 3129 3133 3138 3141 3143 3146 3150 3153 3154 3155 3156 3158 3160 3160 3162 3161 3160 3161 3161
3048 3044 3042 3041 3042 3042 3042 3042 3042 3043 3045 3048 3051 3055 3060 3067 3070 3073 3077 3082 3089 3096 3103 3111 3117 3123 3127 3132 3135 3138 3141 3145 3148 3150 3152 3154 3155 3156 3158 3158 3159 3160 3159 3159 3159
3054 3050 3047 3047 3046 3046 3045 3043 3043 3044 3042 3047 3051 3055 3060 3067 3067 3073 3077 3082 3089 3096 3102 3109 3116 3123 3127 3131 3134 3136 3139 3144 3147 3148 3150 3152 3153 3155 3156 3156 3157 3157 3157 3156 3156
3061 3057 3053 3052 3051 3049 3048 3047 3044 3043 3043 3047 3053 3056 3060 3066 3067 3072 3077 3082 3088 3096 3103 3109 3112 3119 3124 3127 3130 3133 3139 3142 3144 3146 3148 3150 3152 3153 3153 3154 3154 3154 3154 3154 3154
3066 3064 3060 3058 3055 3054 3052 3050 3048 3046 3043 3047 3052 3057 3061 3065 3068 3072 3078 3084 3089 3095 3100 3108 3113 3117 3120 3126 3129 3134 3137 3140 3142 3144 3145 3149 3149 3150 3151 3152 3151 3151 3151 3151 3150
3069 3067 3065 3062 3060 3059 3058 3055 3054 3055 3053 3054 3058 3062 3066 3066 3069 3073 3080 3086 3091 3097 3104 3109 3114 3118 3121 3125 3129 3131 3134 3137 3140 3141 3143 3146 3147 3146 3149 3149 3149 3149 3148 3146 3147
3074 3070 3068 3066 3064 3063 3062 3061 3061 3061 3062 3061 3063 3064 3067 3070 3072 3077 3082 3088 3093 3098 3105 3110 3115 3117 3120 3123 3124 3127 3132 3134 3136 3140 3141 3142 3143 3143 3145 3146 3146 3145 3144 3142 3141
3079 3075 3073 3071 3069 3067 3066 3065 3068 3067 3063 3064 3065 3065 3068 3072 3076 3081 3084 3091 3096 3102 3106 3110 3114 3115 3121 3124 3125 3128 3132 3134 3135 3137 3138 3139 3139 3141 3141 3140 3142 3141 3139 3138 3135
3083 3080 3076 3075 3074 3072 3071 3070 3069 3071 3070 3069 3070 3072 3074 3077 3080 3083 3088 3095 3100 3104 3107 3112 3113 3114 3117 3122 3124 3126 3130 3132 3133 3135 3136 3136 3135 3137 3137 3136 3136 3135 3133 3132 3132
3086 3084 3082 3080 3078 3077 3076 3075 3075 3075 3076 3077 3077 3077 3079 3080 3083 3086 3091 3097 3103 3106 3109 3111 3112 3115 3119 3122 3123 3125 3128 3130 3132 3133 3133 3133 3131 3131 3132 3132 3132 3131 3129 3128 3128
3087 3086 3085 3084 3084 3081 3081 3080 3079 3079 3081 3083 3082 3083 3083 3084 3088 3091 3096 3099 3103 3106 3109 3112 3113 3115 3118 3119 3122 3124 3127 3129 3130 3132 3131 3132 3130 3128 3129 3128 3127 3126 3125 3124 3124
3088 3087 3086 3084 3084 3083 3083 3082 3081 3081 3083 3088 3085 3085 3086 3089 3092 3095 3098 3102 3106 3108 3111 3112 3112 3115 3117 3120 3121 3124 3125 3127 3129 3129 3129 3129 3130 3123 3123 3123 3123 3122 3122 3121 3120
3088 3086 3086 3086 3084 3083 3082 3081 3082 3084 3087 3089 3089 3089 3090 3091 3094 3097 3101 3105 3107 3109 3111 3111 3113 3116 3118 3119 3120 3122 3124 3126 3127 3126 3127 3125 3126 3121 3121 3120 3119 3119 3118 3118 3118
3089 3087 3085 3085 3084 3083 3083 3083 3084 3083 3091 3093 3092 3092 3093 3095 3097 3098 3102 3105 3108 3111 3111 3112 3114 3116 3118 3119 3120 3122 3124 3125 3128 3127 3126 3122 3123 3119 3118 3118 3117 3116 3115 3115 3115
3091 3088 3087 3085 3083 3084 3084 3085 3084 3089 3088 3091 3093 3095 3095 3097 3099 3101 3104 3106 3108 3110 3111 3112 3116 3115 3116 3117 3118 3120 3123 3123 3128 3128 3122 3122 3117 3115 3115 3115 3116 3114 3113 3113 3114
3093 3090 3088 3086 3085 3084 3086 3085 3087 3089 3091 3092 3096 3097 3097 3098 3100 3102 3104 3106 3108 3110 3112 3112 3112 3113 3114 3115 3118 3119 3121 3123 3123 3122 3121 3118 3116 3115 3113 3113 3112 3112 3111 3111 3112
3095 3093 3090 3088 3086 3086 3087 3087 3090 3092 3094 3095 3096 3099 3099 3100 3102 3103 3105 3106 3108 3109 3110 3111 3112 3112 3113 3115 3116 3118 3120 3121 3122 3124 3121 3112 3112 3110 3110 3110 3109 3109 3109 3109 3108
3096 3094 3092 3090 3089 3088 3087 3088 3091 3094 3096 3098 3098 3099 3099 3100 3102 3103 3105 3107 3107 3108 3109 3111 3111 3113 3112 3113 3114 3116 3117 3118 3120 3120 3119 3118 3111 3109 3108 3108 3107 3106 3106 3106 3105
3100 3097 3095 3093 3093 3090 3090 3091 3093 3096 3097 3098 3098 3099 3100 3102 3103 3104 3105 3106 3107 3108 3108 3109 3110 3110 3111 3112 3112 3113 3113 3115 3116 3116 3115 3114 3108 3107 3106 3105 3104 3103 3103 3102 3100
3104 3101 3098 3096 3095 3094 3094 3095 3096 3097 3097 3098 3098 3099 3100 3102 3103 3103 3104 3105 3106 3106 3107 3108 3108 3109 3108 3110 3108 3108 3109 3111 3112 3112 3111 3112 3107 3105 3104 3104 3102 3099 3099 3098 3097
3108 3105 3103 3100 3099 3098 3098 3098 3097 3097 3098 3099 3100 3100 3100 3101 3101 3102 3102 3103 3104 3104 3105 3106 3106 3106 3106 3105 3106 3105 3106 3107 3107 3107 3103 3103 3103 3104 3102 3098 3095 3094 3094 3094 3091
3109 3108 3106 3104 3102 3100 3099 3098 3098 3098 3099 3099 3099 3100 3100 3100 3100 3100 3101 3101 3101 3102 3103 3104 3103 3103 3103 3103 3102 3102 3102 3102 3100 3099 3097 3096 3097 3099 3094 3090 3089 3088 3086 3085 3084
3109 3107 3106 3104 3104 3103 3101 3100 3099 3098 3098 3098 3098 3098 3099 3100 3101 3100 3100 3101 3101 3101 3100 3100 3099 3098 3097 3097 3096 3095 3094 3093 3092 3091 3090 3091 3089 3089 3087 3085 3083 3081 3079 3078 3077
3108 3106 3104 3103 3101 3101 3101 3101 3100 3099 3098 3098 3098 3097 3097 3097 3097 3097 3097 3097 3097 3097 3098 3098 3097 3095 3093 3092 3091 3087 3081 3082 3083 3083 3084 3082 3083 3080 3079 3077 3077 3074 3072 3071 3070
Wind_Speed
15 14 13 8 8 8 7 14 14 16 23 23 24 23 26 27 25 24 25 30 33 32 33 32 30 28 26 25 24 23 20 14 7 10 13 15 13 14 11 9 9 8 9 11 10
20 19 17 13 9 7 8 10 13 15 18 22 23 23 27 27 25 26 24 29 31 32 33 33 30 28 27 26 24 22 23 14 11 16 10 12 12 12 12 11 11 10 10 11 12
21 16 10 10 6 5 5 8 10 11 16 19 23 25 28 26 23 24 25 27 32 33 33 33 29 27 26 26 25 24 19 19 18 16 20 14 14 10 12 10 13 11 9 11 12
28 22 15 8 1 3 3 4 7 13 16 19 20 24 28 27 13 24 23 27 32 34 33 32 32 29 26 25 24 21 25 21 19 17 19 17 14 13 13 14 10 12 15 13 13
26 21 17 14 8 6 1 3 5 12 22 18 21 21 27 26 17 17 25 29 32 34 32 31 28 29 24 22 22 22 18 23 13 15 16 13 14 15 14 15 13 13 15 15 14
27 19 15 18 13 11 7 10 5 10 10 18 18 23 25 26 19 15 25 29 29 32 31 31 28 18 18 15 18 19 22 19 16 14 14 15 15 16 16 15 15 14 14 14 14
32 24 16 15 14 13 11 7 5 4 10 16 15 13 21 24 14 13 23 26 28 30 29 31 32 21 18 26 25 19 16 15 15 15 14 15 16 15 18 15 15 16 16 15 14
25 23 19 13 12 15 12 15 15 28 27 28 14 7 15 24 17 16 21 24 28 30 33 30 32 27 24 19 22 14 17 14 16 14 15 14 9 11 12 13 14 15 15 15 16
21 23 20 17 17 16 14 15 20 19 19 24 22 19 14 17 17 22 21 23 25 27 28 29 27 21 21 18 20 17 9 15 11 14 15 14 10 17 14 13 14 15 16 21 19
14 16 18 17 16 15 17 17 12 13 14 14 10 11 15 16 19 20 21 22 24 26 26 25 25 15 20 20 17 22 10 17 14 12 14 16 17 18 18 18 17 18 20 24 24
19 14 14 12 12 11 14 13 12 11 9 5 7 7 17 19 20 21 22 20 21 22 25 23 21 17 20 18 10 16 14 8 16 15 12 14 17 15 17 21 19 19 23 24 26
16 20 13 10 9 6 8 14 17 17 18 15 15 17 20 21 22 23 23 22 22 18 14 24 15 18 22 19 13 16 16 12 11 11 12 14 19 15 18 22 23 23 24 24 23
13 15 17 15 18 20 21 21 19 18 16 15 13 18 20 22 22 23 25 22 14 12 16 17 18 16 19 17 11 14 13 12 11 8 10 13 18 9 9 11 13 19 23 22 21
6 6 7 8 9 8 8 7 9 10 7 9 10 12 15 20 17 18 17 23 18 17 13 11 11 15 18 16 13 8 10 9 7 6 3 5 6 12 14 16 18 18 18 19 18
5 5 4 4 5 5 5 5 4 3 3 4 7 15 17 5 20 15 17 16 13 14 10 8 15 15 14 12 12 6 5 7 7 8 9 10 7 6 12 18 16 15 13 14 15
10 7 5 4 2 2 6 7 5 2 4 5 10 9 10 19 15 17 15 12 10 11 4 6 13 11 11 10 9 6 5 5 8 8 3 11 10 6 10 11 11 11 13 14 13
10 9 8 4 3 4 3 4 2 6 6 6 10 10 12 13 15 17 16 12 8 7 3 6 10 9 9 9 8 7 5 1 4 1 4 5 7 10 13 14 13 14 15 14 12
10 10 9 8 6 4 1 2 5 6 7 11 7 11 8 12 12 13 12 11 7 7 7 5 5 11 10 11 7 9 7 3 5 2 2 4 7 5 7 8 10 16 16 13 11
12 10 10 8 8 5 3 2 3 7 14 13 10 7 7 6 9 9 11 11 6 9 5 5 4 9 8 11 9 6 8 7 4 6 2 6 6 12 14 11 8 9 8 6 5
12 9 9 10 6 5 2 5 7 7 13 8 4 7 1 5 7 4 7 7 7 9 9 5 3 6 9 10 11 9 5 3 4 0 4 8 8 9 8 8 4 7 6 3 5
16 10 13 10 5 3 8 11 14 12 7 3 4 4 4 5 7 6 4 2 9 6 7 4 5 2 6 7 10 12 11 7 5 5 2 3 3 3 5 11 16 16 11 11 14
19 19 12 11 4 8 15 15 13 10 4 2 2 2 2 3 2 2 3 4 3 6 5 7 3 4 9 8 11 12 11 12 6 5 7 5 10 20 16 10 9 10 11 17 26
16 17 17 12 8 8 10 10 7 5 4 5 5 5 4 4 2 5 4 4 4 5 3 5 5 2 4 6 12 15 16 15 17 15 13 2 6 5 9 5 15 21 23 26 28
16 14 12 12 9 6 5 3 4 4 3 2 2 3 4 5 6 4 5 5 6 7 8 8 10 9 5 4 6 7 10 11 18 13 12 22 18 16 14 10 19 23 28 29 23
16 15 14 12 10 6 3 0 2 2 2 2 2 4 4 4 5 6 7 7 8 8 8 8 10 13 15 17 20 21 22 21 25 28 23 27 20 19 24 29 31 34 38 28 24
12 12 13 12 10 9 5 3 3 2 4 4 4 4 5 6 6 7 6 8 9 9 10 12 13 15 18 19 19 22 25 26 30 32 34 33 35 31 32 35 31 24 22 27 26
15 13 11 12 11 9 7 8 6 5 5 4 4 5 5 6 7 8 10 11 12 12 13 13 10 9 8 11 14 20 23 18 22 26 28 30 27 28 28 28 29 29 28 25 22
Wind_Direction
329 319 311 302 306 283 248 233 233 222 214 218 219 218 207 206 214 209 208 208 206 200 197 200 202 203 212 213 211 210 216 222 237 242 240 246 247 213 220 240 248 258 280 295 300
330 313 308 293 284 258 242 224 227 222 216 221 224 215 207 205 212 210 206 206 199 196 196 197 199 201 206 212 205 206 216 212 228 210 225 232 234 215 222 242 251 258 271 293 297
4 348 309 271 278 256 217 210 215 217 211 212 215 212 208 206 213 209 211 202 195 194 194 193 193 199 199 205 204 204 209 217 222 213 233 231 230 224 226 240 255 278 277 292 294
27 38 43 51 36 266 160 222 219 223 217 214 216 215 204 202 203 212 206 199 195 193 193 197 192 188 191 202 206 199 206 214 221 225 236 232 222 225 232 245 258 277 291 291 292
27 55 62 70 74 99 66 289 229 208 202 202 207 203 200 202 208 205 200 197 195 192 190 191 191 184 187 195 202 198 216 219 223 228 232 235 228 233 235 249 258 268 278 286 290
38 52 67 72 71 66 70 66 111 176 201 189 199 207 186 200 204 210 199 193 193 190 187 185 184 165 172 187 201 193 223 222 227 228 226 228 234 236 241 252 259 270 278 284 289
44 44 43 60 77 70 55 57 63 85 181 178 187 209 226 182 190 207 190 189 187 187 185 182 172 168 169 194 194 203 215 213 220 225 229 232 242 247 260 268 272 276 281 284 285
46 46 47 62 76 72 68 57 60 85 107 119 116 190 214 183 166 166 183 182 182 183 179 181 176 176 178 186 185 190 201 211 215 223 230 234 241 255 269 267 275 280 282 283 288
37 45 48 53 78 89 80 63 88 65 64 89 109 103 109 135 152 158 169 175 176 179 178 178 180 182 180 176 182 191 210 205 222 229 236 237 233 257 269 276 281 285 287 289 290
34 37 39 49 63 73 77 76 74 70 83 87 83 75 129 147 145 151 162 165 170 170 171 176 176 180 173 169 181 190 196 204 228 238 240 245 252 264 274 278 285 286 285 287 292
41 37 54 46 61 66 84 79 57 53 42 56 77 86 122 128 134 142 143 154 154 161 170 174 179 179 172 178 204 204 191 192 216 239 248 256 262 267 280 287 284 279 277 287 285
40 49 45 49 46 69 68 83 87 76 71 87 101 118 123 124 129 131 139 144 149 153 173 171 182 185 185 189 190 168 191 204 229 238 253 266 274 278 273 273 279 280 281 281 287
49 51 62 62 70 82 88 85 84 81 77 80 98 120 128 131 133 139 145 144 143 163 158 176 192 183 187 187 178 177 171 209 235 254 275 288 295 282 264 274 280 274 279 283 286
7 58 46 62 59 39 38 54 57 80 82 64 87 108 119 118 126 142 156 150 151 166 162 186 187 181 182 185 185 197 208 228 242 260 253 283 284 293 278 275 278 278 280 284 287
28 343 354 6 18 360 338 11 26 51 74 42 92 122 132 121 137 142 156 167 170 164 182 178 175 174 183 183 187 199 215 234 252 265 277 265 251 261 265 276 278 275 280 287 290
34 43 358 345 6 341 328 358 13 73 52 96 122 123 123 137 142 140 149 154 168 169 198 186 179 186 190 188 191 208 216 252 269 268 266 220 228 263 243 267 283 288 300 298 291
25 31 39 21 344 322 333 341 12 66 111 117 135 131 130 138 143 146 151 152 159 169 179 157 174 188 192 189 197 212 215 32 355 15 225 227 234 249 232 254 272 283 288 290 289
25 27 39 48 43 32 80 69 62 88 105 133 125 135 124 127 138 143 146 159 169 182 174 163 181 198 200 205 203 209 207 182 218 211 258 213 245 249 265 261 267 278 279 289 288
23 23 37 50 68 79 124 28 100 121 133 127 113 110 125 131 147 154 163 180 184 196 151 200 221 213 209 214 207 212 211 228 270 287 301 236 263 273 269 278 282 281 289 306 317
22 18 29 35 68 93 171 102 114 124 131 106 80 112 146 134 132 115 175 209 208 210 210 206 244 230 218 222 221 218 206 166 204 189 256 243 234 249 275 289 279 299 283 252 265
22 38 29 28 56 78 119 118 127 138 138 72 53 120 121 150 134 169 199 251 218 225 227 237 240 298 231 228 231 230 226 219 219 233 205 322 241 270 280 294 288 286 260 263 300
22 35 21 33 47 87 114 127 133 139 134 118 54 129 140 147 213 198 255 235 233 234 230 225 239 267 257 260 246 240 218 219 212 204 221 251 270 281 287 293 275 246 266 297 313
22 33 31 32 68 103 116 126 138 151 165 167 153 157 163 179 190 223 238 238 234 223 230 207 215 224 272 264 249 243 244 236 223 239 229 193 267 252 298 286 288 271 278 293 301
13 25 33 38 44 77 93 109 145 153 148 171 169 179 181 188 207 214 216 225 229 233 237 234 234 221 216 242 262 249 266 247 231 233 237 235 251 283 296 266 261 272 283 293 288
9 13 16 21 29 41 24 1 217 233 254 235 232 222 221 228 235 242 246 249 255 253 251 251 261 260 261 271 273 274 274 265 247 260 241 264 249 240 259 265 268 280 287 284 286
356 1 354 359 359 355 3 355 319 286 269 249 247 246 259 270 272 294 290 280 273 270 264 262 268 277 281 281 275 273 268 259 261 265 262 264 269 278 272 272 279 284 278 288 291
337 339 339 334 331 334 327 319 308 299 291 265 275 275 267 270 268 274 272 271 269 274 275 271 266 282 276 276 287 282 282 264 262 264 264 257 270 263 270 278 285 287 288 290 286